Wind_Speed
7 11 12 6 8 9 5 3 5 8 11 11 11 9 10 9 7 8 9 8 8 9 8 6 8 10 8 7 7 8 12 12 13 16 14 12 9 7 5 4 3 2 3
8 13 11 8 7 8 4 5 7 9 9 9 9 7 7 9 7 9 10 10 9 10 12 13 12 10 9 8 8 8 8 9 9 16 17 15 12 6 4 2 3 3 4
12 14 12 8 7 7 5 6 7 7 6 7 7 6 8 10 7 8 11 13 13 12 13 14 13 13 12 9 8 8 7 8 9 11 17 15 12 9 7 3 3 5 3
14 11 12 9 7 8 6 6 6 5 5 6 7 8 6 7 8 7 6 10 12 14 14 14 13 13 12 12 11 8 8 9 12 10 12 12 9 9 7 5 4 4 2
16 13 12 10 10 10 8 7 8 6 4 6 8 7 3 3 6 8 6 8 11 13 13 13 13 11 9 10 11 12 9 10 12 12 12 11 10 8 6 6 6 5 2
17 13 18 15 14 12 12 11 10 9 8 8 6 3 1 5 8 5 7 8 10 11 10 10 10 11 9 8 8 10 12 9 10 10 10 9 8 7 5 5 5 3 2
20 12 20 17 16 14 15 15 13 11 11 11 8 6 3 6 8 6 6 7 7 7 6 7 6 9 9 7 7 7 8 8 8 8 8 8 7 5 3 4 3 2 2
17 12 15 14 13 14 17 17 15 15 12 13 11 8 4 6 7 7 6 6 6 7 8 5 4 5 7 7 7 8 8 7 7 5 3 3 2 5 6 4 3 3 1
17 20 20 16 20 14 20 17 16 17 14 14 14 10 7 7 8 9 8 6 3 4 6 6 5 4 6 7 6 7 8 8 8 7 7 9 5 2 3 5 7 4 2
14 19 15 14 11 14 12 14 15 19 17 15 17 12 9 9 10 11 10 9 5 4 5 5 5 4 3 4 5 3 5 7 12 12 11 9 8 9 9 2 6 5 7
7 8 7 13 11 1 9 18 12 6 14 15 12 13 10 9 11 12 14 12 8 6 6 6 5 5 6 6 4 2 1 8 10 6 5 1 3 3 8 12 2 3 1
9 11 9 7 8 8 5 1 5 11 13 14 17 14 13 12 13 14 15 13 13 12 8 5 4 6 6 6 5 5 5 8 5 5 6 8 8 4 7 4 6 6 6
8 12 15 15 15 11 9 10 14 15 19 20 21 15 16 16 14 14 16 16 14 14 13 10 9 9 8 6 5 11 10 4 2 8 11 7 2 2 2 5 2 2 2
11 14 16 18 17 17 17 15 16 16 16 22 18 19 21 16 12 15 16 15 16 16 15 13 11 10 9 6 11 10 6 7 5 7 6 3 0 1 1 2 4 3 4
5 6 9 12 13 12 12 13 15 18 18 22 20 21 22 21 14 11 10 14 15 14 14 14 13 12 11 11 11 9 6 5 7 4 4 4 4 3 3 3 1 2 1
3 5 7 8 9 10 11 12 12 13 15 16 18 25 24 21 18 15 11 9 11 14 15 14 14 14 16 14 14 12 10 8 7 6 5 6 5 2 3 3 1 1 1
14 8 8 11 13 12 13 14 11 11 13 15 16 22 25 20 18 18 18 14 11 13 14 14 14 17 15 11 14 19 17 10 5 10 8 4 5 4 4 2 4 6 9
20 22 17 9 12 16 16 16 14 13 13 14 16 18 21 19 21 21 19 18 18 20 19 17 19 18 14 12 16 15 15 12 5 11 9 9 8 6 7 5 6 8 11
20 19 17 15 11 15 18 19 16 13 13 14 18 19 21 23 21 20 21 23 21 21 22 22 23 18 13 21 17 15 13 13 10 11 12 13 11 11 5 7 8 9 11
19 17 16 14 13 13 17 15 15 16 15 17 17 18 19 20 23 27 26 24 24 24 22 22 22 20 18 22 18 19 17 15 13 13 13 10 13 12 11 12 15 15 18
17 15 14 15 16 17 17 19 18 18 18 18 18 16 12 14 19 26 24 23 22 21 21 21 22 16 26 23 20 20 20 19 17 17 17 14 16 17 16 14 14 14 16
18 19 15 15 17 18 15 15 20 24 25 25 24 21 12 11 7 11 11 12 16 21 23 18 19 24 29 21 17 22 23 18 17 17 13 18 19 18 18 18 19 21 21
22 22 19 16 18 19 19 15 18 17 14 13 16 18 15 17 12 14 9 6 9 16 16 11 16 17 20 19 17 20 22 19 22 21 20 18 20 22 23 23 23 23 25
24 24 24 20 22 19 19 18 16 13 12 9 9 17 19 17 14 16 16 12 23 19 18 18 20 21 19 14 17 20 25 28 28 28 24 22 25 22 21 23 24 25 25
21 23 24 23 21 21 17 22 21 18 16 16 10 16 17 15 14 18 18 19 14 7 26 28 26 25 24 22 24 26 28 28 28 27 24 22 20 21 23 26 26 24 20
17 19 22 23 20 22 18 20 20 18 16 21 25 21 18 19 22 27 22 17 19 15 15 16 17 18 20 23 25 24 22 22 24 24 22 22 23 24 26 24 19 18 20
Wind_Direction
179 171 165 180 154 143 165 121 110 96 85 83 85 91 85 87 61 43 46 83 98 94 86 94 91 85 96 114 141 156 188 211 204 178 181 176 177 173 183 160 126 114 108
185 185 167 178 165 155 146 121 109 94 104 110 110 109 106 107 84 51 66 86 82 82 92 86 98 103 93 110 122 144 171 188 210 175 175 182 186 175 156 137 144 130 116
175 172 179 189 167 163 158 123 120 108 103 137 133 117 110 112 103 77 67 68 76 82 87 91 83 94 94 81 111 130 146 150 164 175 176 181 183 165 162 175 156 132 123
174 181 178 189 186 185 181 154 126 119 115 132 127 117 116 103 106 98 76 76 87 87 90 94 97 95 91 87 94 104 115 126 135 144 164 162 164 166 169 170 179 171 168
175 182 192 203 207 206 191 176 158 146 147 129 126 138 110 109 131 119 123 97 100 93 92 97 95 89 88 90 89 89 110 136 145 146 154 158 165 168 169 170 155 139 120
183 196 208 208 229 218 199 190 188 177 165 134 149 177 150 159 155 137 127 123 112 104 94 97 93 98 93 92 87 95 91 96 125 137 141 136 128 123 128 144 147 133 115
192 205 209 228 227 235 213 203 204 194 180 173 194 207 207 180 160 158 139 135 140 125 122 91 106 95 101 103 97 87 92 104 110 129 142 147 146 142 151 151 166 226 214
210 207 229 236 230 227 237 216 205 214 206 201 212 212 202 178 172 168 155 147 153 152 177 181 156 107 105 112 117 119 116 118 123 119 112 128 149 189 199 191 170 210 218
225 234 239 243 238 232 244 223 227 234 219 213 220 221 210 195 182 181 170 162 184 150 153 167 164 150 126 121 125 122 116 112 110 108 106 94 91 101 205 224 213 240 251
240 242 247 267 233 231 274 316 265 233 244 217 222 226 223 217 197 191 188 196 212 212 194 175 176 180 167 135 130 107 89 100 112 102 90 87 87 83 57 15 226 238 131
228 229 250 262 265 240 291 285 258 228 247 233 214 223 230 222 207 197 195 211 220 226 220 196 186 184 184 181 196 238 326 126 128 137 127 121 138 58 26 4 35 266 207
211 210 212 211 257 270 240 19 200 278 253 252 221 221 232 236 217 207 205 206 219 231 244 215 246 213 192 189 197 214 183 170 193 255 258 174 153 70 13 24 70 70 57
237 236 236 242 266 269 235 245 242 237 241 251 237 235 239 239 227 217 217 225 230 234 237 238 235 219 200 193 165 156 161 161 177 142 143 154 165 321 334 2 26 69 60
268 256 255 265 272 272 267 249 241 243 247 249 233 253 230 226 240 228 229 231 232 233 234 241 228 215 199 196 166 173 186 188 175 150 139 126 23 193 250 347 29 54 4
286 287 291 289 284 286 276 264 253 248 244 248 247 247 223 218 231 237 239 238 235 231 228 227 224 212 191 172 164 170 164 154 198 219 194 193 197 225 242 304 33 320 352
328 317 312 305 307 313 301 299 268 261 258 256 244 239 216 215 232 231 233 236 226 227 229 230 227 209 194 192 187 190 195 217 210 195 208 222 210 218 291 177 227 250 265
352 314 282 297 305 308 316 326 289 268 263 252 251 235 222 223 227 228 232 236 244 242 237 229 212 196 200 227 220 207 210 212 212 210 202 207 191 212 206 214 258 276 236
342 342 345 333 301 304 307 311 313 277 265 259 241 235 224 227 226 227 229 230 240 242 238 226 204 204 221 237 196 196 222 210 222 201 207 216 225 239 223 241 270 305 251
319 324 326 327 320 300 301 298 297 287 273 258 247 243 250 235 231 229 235 242 244 242 241 230 219 217 244 203 213 212 216 209 216 225 223 221 227 228 233 264 250 280 294
309 318 318 317 316 301 296 294 291 280 276 264 258 252 249 247 251 248 246 239 239 251 231 224 216 223 208 206 226 215 212 212 217 240 234 209 215 232 241 255 264 279 292
296 303 310 301 302 312 288 288 285 283 276 268 263 248 247 264 265 246 241 247 243 223 210 206 219 236 205 216 220 222 231 245 226 226 232 232 255 226 239 255 273 279 281
287 298 303 286 293 306 276 277 285 282 273 268 266 254 235 247 280 241 240 244 238 222 209 215 255 243 212 225 242 234 237 241 227 249 231 235 216 236 257 263 286 280 271
284 292 294 279 289 298 271 277 286 279 276 259 242 233 237 237 249 219 205 224 205 210 216 243 212 196 221 235 231 234 238 227 233 239 239 240 253 261 265 275 285 274 271
275 277 283 273 274 280 261 261 276 265 262 266 246 231 229 237 245 219 217 272 239 215 221 230 235 234 229 211 218 233 236 231 235 240 244 259 263 263 273 280 282 281 272
287 274 276 272 266 266 262 259 256 261 265 244 240 217 221 225 215 221 246 232 227 246 234 227 219 224 234 242 243 241 247 247 249 254 258 254 258 273 280 281 279 275 264
297 282 284 278 274 278 278 256 263 268 269 252 241 239 227 229 215 221 238 236 241 202 186 197 213 228 254 255 254 254 244 245 248 253 255 257 267 277 280 272 260 253 254
Height
1534 1534 1534 1537 1538 1537 1537 1537 1538 1536 1536 1537 1537 1537 1538 1539 1538 1537 1536 1537 1537 1537 1535 1535 1535 1535 1535 1535 1535 1536 1539 1542 1544 1547 1549 1551 1552 1554 1555 1556 1556 1556 1556
1532 1533 1534 1534 1536 1536 1537 1538 1538 1537 1538 1538 1538 1539 1539 1539 1540 1538 1538 1537 1537 1536 1536 1535 1535 1536 1536 1536 1536 1536 1538 1540 1542 1543 1547 1550 1552 1554 1555 1556 1557 1557 1557
1530 1532 1535 1535 1535 1536 1536 1537 1538 1538 1538 1540 1539 1540 1541 1540 1540 1539 1539 1539 1539 1538 1537 1536 1537 1537 1538 1537 1537 1537 1538 1539 1540 1541 1545 1548 1551 1552 1554 1555 1556 1557 1558
1529 1531 1534 1533 1534 1536 1537 1537 1537 1538 1539 1541 1540 1541 1540 1540 1540 1540 1539 1541 1541 1540 1539 1539 1540 1539 1539 1539 1538 1539 1540 1540 1542 1543 1545 1548 1550 1552 1554 1555 1556 1557 1558
1527 1529 1532 1533 1534 1536 1536 1537 1538 1538 1539 1540 1541 1540 1540 1540 1540 1540 1541 1541 1542 1542 1542 1541 1541 1541 1541 1541 1541 1541 1542 1543 1543 1544 1545 1547 1549 1551 1553 1554 1555 1556 1557
1527 1529 1532 1533 1535 1537 1536 1537 1538 1538 1540 1541 1540 1540 1541 1541 1541 1541 1541 1542 1542 1543 1543 1544 1544 1543 1542 1542 1542 1543 1545 1545 1545 1546 1548 1549 1550 1551 1553 1554 1554 1556 1557
1528 1529 1531 1534 1535 1535 1537 1537 1537 1537 1539 1540 1541 1540 1540 1541 1541 1541 1541 1541 1542 1543 1544 1544 1545 1545 1545 1544 1544 1545 1546 1547 1548 1549 1549 1550 1551 1552 1553 1554 1554 1555 1556
1528 1529 1531 1532 1533 1532 1532 1536 1536 1535 1537 1539 1539 1540 1541 1540 1540 1541 1541 1541 1542 1544 1545 1545 1545 1547 1546 1546 1547 1547 1548 1548 1549 1550 1551 1551 1552 1552 1552 1553 1553 1554 1555
1526 1525 1526 1527 1528 1528 1529 1526 1532 1532 1533 1535 1536 1537 1539 1539 1539 1541 1541 1542 1542 1543 1545 1546 1546 1546 1547 1547 1548 1548 1548 1549 1550 1550 1551 1551 1552 1552 1552 1552 1553 1552 1552
1523 1522 1523 1525 1527 1524 1526 1512 1526 1527 1531 1533 1534 1535 1537 1538 1538 1539 1540 1541 1542 1544 1544 1545 1546 1546 1546 1546 1548 1548 1549 1549 1550 1551 1551 1552 1552 1552 1553 1552 1552 1552 1551
1520 1520 1523 1524 1527 1525 1522 1525 1517 1513 1527 1530 1532 1533 1534 1535 1536 1538 1539 1540 1541 1542 1543 1544 1545 1546 1546 1546 1547 1547 1548 1548 1548 1549 1550 1551 1552 1552 1552 1551 1551 1550 1551
1518 1520 1522 1523 1523 1522 1523 1524 1525 1526 1525 1526 1529 1530 1530 1531 1533 1535 1537 1538 1540 1540 1541 1543 1544 1544 1545 1546 1546 1547 1546 1547 1547 1548 1547 1549 1550 1551 1551 1551 1551 1551 1551
1516 1518 1520 1522 1522 1522 1524 1522 1522 1522 1523 1525 1526 1526 1526 1528 1530 1533 1535 1536 1537 1538 1539 1541 1542 1543 1543 1544 1545 1545 1546 1546 1546 1546 1547 1549 1550 1551 1551 1551 1550 1550 1550
1513 1515 1517 1517 1518 1517 1518 1519 1520 1519 1519 1519 1520 1522 1522 1524 1527 1528 1530 1532 1534 1535 1536 1538 1539 1540 1541 1542 1542 1544 1546 1545 1546 1547 1547 1547 1548 1549 1549 1549 1549 1549 1549
1510 1511 1512 1513 1513 1513 1512 1512 1513 1514 1515 1516 1516 1517 1516 1518 1521 1525 1526 1528 1530 1531 1532 1534 1535 1537 1538 1540 1541 1542 1543 1544 1544 1545 1546 1546 1547 1547 1548 1548 1548 1548 1548
1507 1509 1510 1510 1509 1509 1509 1508 1508 1509 1509 1510 1511 1511 1513 1515 1518 1521 1523 1525 1526 1527 1528 1530 1531 1533 1535 1537 1538 1539 1540 1541 1542 1543 1544 1545 1545 1546 1546 1547 1547 1547 1547
1507 1506 1506 1506 1505 1506 1506 1506 1505 1505 1505 1505 1506 1507 1509 1512 1515 1517 1519 1521 1522 1524 1525 1527 1528 1530 1532 1533 1535 1535 1537 1538 1539 1540 1542 1543 1543 1544 1544 1545 1545 1545 1544
1505 1504 1503 1502 1502 1502 1503 1503 1502 1502 1501 1501 1503 1504 1505 1507 1510 1512 1513 1515 1517 1518 1520 1523 1525 1526 1528 1530 1529 1531 1533 1535 1536 1538 1539 1540 1541 1542 1542 1542 1542 1541 1541
1504 1503 1501 1500 1500 1500 1500 1499 1499 1498 1497 1498 1499 1501 1503 1503 1504 1506 1509 1510 1511 1513 1515 1517 1520 1523 1524 1525 1526 1527 1529 1531 1533 1535 1536 1537 1538 1539 1539 1540 1540 1539 1538
1502 1500 1498 1498 1498 1497 1497 1496 1495 1494 1494 1494 1495 1497 1498 1499 1500 1502 1502 1503 1505 1507 1508 1512 1515 1519 1520 1522 1522 1524 1525 1527 1529 1531 1532 1532 1533 1534 1534 1535 1536 1535 1534
1499 1497 1495 1494 1494 1493 1493 1492 1491 1491 1490 1490 1491 1493 1495 1496 1494 1495 1497 1498 1499 1501 1504 1506 1509 1513 1515 1516 1518 1520 1522 1524 1525 1526 1527 1528 1529 1530 1529 1528 1529 1530 1529
1493 1492 1491 1490 1489 1489 1488 1488 1488 1487 1487 1486 1486 1488 1490 1491 1489 1491 1492 1493 1495 1498 1501 1504 1505 1506 1508 1510 1512 1514 1516 1518 1519 1521 1521 1522 1523 1524 1524 1523 1522 1523 1522
1489 1487 1486 1485 1484 1485 1484 1484 1484 1481 1480 1480 1481 1483 1484 1485 1487 1488 1489 1491 1494 1497 1499 1500 1501 1502 1505 1506 1507 1509 1511 1513 1514 1515 1515 1516 1516 1517 1517 1517 1516 1516 1515
1484 1483 1481 1480 1479 1479 1479 1480 1480 1478 1477 1476 1477 1479 1480 1483 1487 1489 1490 1489 1491 1494 1498 1498 1499 1499 1500 1501 1504 1506 1507 1508 1509 1510 1509 1510 1511 1510 1510 1510 1509 1508 1507
1478 1477 1477 1475 1474 1475 1474 1475 1475 1475 1475 1475 1475 1477 1481 1482 1484 1486 1486 1485 1486 1487 1491 1492 1493 1494 1495 1497 1498 1500 1501 1503 1502 1502 1503 1503 1504 1503 1503 1502 1501 1500 1499
1473 1472 1471 1470 1470 1471 1470 1469 1471 1473 1472 1472 1472 1475 1476 1477 1477 1479 1478 1480 1482 1483 1484 1486 1487 1489 1489 1492 1493 1493 1494 1495 1495 1496 1496 1497 1496 1496 1495 1494 1493 1492 1492